When you browse on this site, cookies collect data to enhance your experience and personalize the content and advertising you see.
Visit our Privacy Policy to learn more. By continuing to use the site, you agree to this use of cookies and data.
  • In Schweiz
  • Länderverzeichnis
  • Für 7 Tage
  • Wassertemperatur
  • Satellitenkarten
  • Wetterkarte
  • Widgets
  • user-avatar
    Anmelden

    Stündliche Wetter Karabalta

    Heute, 21 Januar, Montag

    Zeit Temperatur Niederschläge Wind Luftdruck Luftfeuchtigkeit
    00:00 +1°C° 0.2 mm 2 m/S 695 mmHg 85%
    01:00 +1°C° 0.2 mm 2 m/S 696 mmHg 87%
    02:00 +1°C° 0.2 mm 2 m/S 696 mmHg 89%
    03:00 +1°C° 0.3 mm 1 m/S 697 mmHg 90%
    04:00 +1°C° 0.3 mm 1 m/S 697 mmHg 91%
    05:00 +1°C° 0 mm 1 m/S 698 mmHg 89%
    06:00 +1°C° 0.1 mm 1 m/S 698 mmHg 88%
    07:00 +1°C° 0.1 mm 1 m/S 699 mmHg 88%
    08:00 -1°C° 0.1 mm 2 m/S 699 mmHg 87%
    09:00 -1°C° 0.2 mm 2 m/S 699 mmHg 87%
    10:00 -1°C° 0.2 mm 2 m/S 700 mmHg 87%
    11:00 +1°C° 0 mm 2 m/S 700 mmHg 83%
    12:00 +1°C° 0.2 mm 2 m/S 700 mmHg 86%
    13:00 0°C° 0.2 mm 3 m/S 700 mmHg 88%
    14:00 0°C° 0.2 mm 3 m/S 700 mmHg 91%
    15:00 -1°C° 0.2 mm 3 m/S 701 mmHg 91%
    16:00 -1°C° 0.2 mm 2 m/S 701 mmHg 92%
    17:00 +1°C° 0 mm 1 m/S 701 mmHg 94%
    18:00 +1°C° 0 mm 1 m/S 701 mmHg 93%
    19:00 0°C° 0 mm 1 m/S 702 mmHg 92%
    20:00 0°C° 0 mm 1 m/S 702 mmHg 91%
    21:00 0°C° 0 mm 1 m/S 702 mmHg 88%
    22:00 0°C° 0 mm 1 m/S 701 mmHg 86%
    23:00 0°C° 0 mm 1 m/S 701 mmHg 84%

    Morgen, 22 Januar, Dienstag

    Zeit Temperatur Niederschläge Wind Luftdruck Luftfeuchtigkeit
    00:00 0°C° 0 mm 1 m/S 701 mmHg 81%
    01:00 0°C° 0 mm 1 m/S 700 mmHg 78%
    02:00 0°C° 0 mm 1 m/S 700 mmHg 76%
    03:00 -1°C° 0 mm 1 m/S 699 mmHg 74%
    04:00 -1°C° 0 mm 1 m/S 699 mmHg 72%
    05:00 -1°C° 0 mm 1 m/S 699 mmHg 71%
    06:00 -1°C° 0 mm 1 m/S 698 mmHg 69%
    07:00 -1°C° 0 mm 1 m/S 698 mmHg 68%
    08:00 -1°C° 0 mm 1 m/S 698 mmHg 67%
    09:00 0°C° 0 mm 1 m/S 697 mmHg 68%
    10:00 0°C° 0 mm 1 m/S 697 mmHg 70%
    11:00 -1°C° 0 mm 2 m/S 696 mmHg 71%
    12:00 +1°C° 0 mm 2 m/S 696 mmHg 73%
    13:00 +1°C° 0 mm 2 m/S 695 mmHg 76%
    14:00 +1°C° 0 mm 2 m/S 695 mmHg 78%
    15:00 +2°C° 0 mm 1 m/S 695 mmHg 80%
    16:00 +1°C° 0 mm 1 m/S 695 mmHg 83%
    17:00 +1°C° 0 mm 1 m/S 695 mmHg 85%
    18:00 +1°C° 0 mm 1 m/S 695 mmHg 83%
    19:00 +1°C° 0 mm 1 m/S 696 mmHg 81%
    20:00 +1°C° 0 mm 1 m/S 696 mmHg 79%
    21:00 +1°C° 0 mm 1 m/S 696 mmHg 77%
    22:00 0°C° 0 mm 1 m/S 696 mmHg 75%
    23:00 0°C° 0 mm 1 m/S 696 mmHg 73%

    übermorgen, 23 Januar, Mittwoch

    Zeit Temperatur Niederschläge Wind Luftdruck Luftfeuchtigkeit
    00:00 0°C° 0 mm 1 m/S 696 mmHg 71%
    01:00 0°C° 0 mm 1 m/S 696 mmHg 70%
    02:00 0°C° 0 mm 1 m/S 696 mmHg 68%
    03:00 0°C° 0 mm 1 m/S 696 mmHg 67%
    04:00 0°C° 0 mm 1 m/S 697 mmHg 65%
    05:00 0°C° 0 mm 1 m/S 697 mmHg 64%
    06:00 0°C° 0 mm 1 m/S 697 mmHg 62%
    07:00 0°C° 0 mm 1 m/S 697 mmHg 61%
    08:00 0°C° 0 mm 1 m/S 698 mmHg 60%
    09:00 +1°C° 0 mm 1 m/S 698 mmHg 60%
    10:00 +2°C° 0 mm 1 m/S 698 mmHg 60%
    11:00 +3°C° 0 mm 1 m/S 698 mmHg 60%
    12:00 +2°C° 0 mm 2 m/S 697 mmHg 62%
    13:00 +2°C° 0 mm 2 m/S 697 mmHg 64%
    14:00 +3°C° 0 mm 2 m/S 697 mmHg 67%
    15:00 +3°C° 0 mm 1 m/S 697 mmHg 71%
    16:00 +2°C° 0 mm 1 m/S 697 mmHg 76%
    17:00 0°C° 0 mm 0 m/S 698 mmHg 81%
    18:00 +1°C° 0 mm 1 m/S 698 mmHg 76%
    19:00 +1°C° 0 mm 1 m/S 699 mmHg 72%
    20:00 +1°C° 0 mm 1 m/S 699 mmHg 68%
    21:00 +1°C° 0 mm 1 m/S 699 mmHg 65%
    22:00 +1°C° 0 mm 1 m/S 699 mmHg 62%
    23:00 +1°C° 0 mm 1 m/S 700 mmHg 59%

    24 Januar, Donnerstag

    Zeit Temperatur Niederschläge Wind Luftdruck Luftfeuchtigkeit
    00:00 +1°C° 0 mm 1 m/S 700 mmHg 57%
    01:00 +1°C° 0 mm 1 m/S 700 mmHg 55%
    02:00 +1°C° 0 mm 1 m/S 700 mmHg 53%
    03:00 +1°C° 0 mm 1 m/S 701 mmHg 52%
    04:00 +1°C° 0 mm 1 m/S 701 mmHg 52%
    05:00 +1°C° 0 mm 1 m/S 701 mmHg 51%
    06:00 +1°C° 0 mm 1 m/S 702 mmHg 50%
    07:00 +1°C° 0 mm 1 m/S 702 mmHg 50%
    08:00 +1°C° 0 mm 1 m/S 703 mmHg 50%
    09:00 +2°C° 0 mm 1 m/S 703 mmHg 49%
    10:00 +3°C° 0 mm 1 m/S 703 mmHg 48%
    11:00 +4°C° 0 mm 1 m/S 703 mmHg 47%
    12:00 +4°C° 0 mm 1 m/S 703 mmHg 47%
    13:00 +5°C° 0 mm 1 m/S 703 mmHg 48%
    14:00 +4°C° 0 mm 2 m/S 703 mmHg 48%
    15:00 +3°C° 0 mm 2 m/S 703 mmHg 52%
    16:00 +3°C° 0 mm 1 m/S 703 mmHg 55%
    17:00 +2°C° 0 mm 1 m/S 703 mmHg 58%
    18:00 +1°C° 0 mm 2 m/S 704 mmHg 55%
    19:00 +1°C° 0 mm 2 m/S 705 mmHg 52%
    20:00 -1°C° 0 mm 2 m/S 705 mmHg 49%
    21:00 -1°C° 0 mm 2 m/S 705 mmHg 47%
    22:00 -1°C° 0 mm 2 m/S 705 mmHg 45%
    23:00 -1°C° 0 mm 2 m/S 705 mmHg 44%

    25 Januar, Freitag

    Zeit Temperatur Niederschläge Wind Luftdruck Luftfeuchtigkeit
    00:00 -1°C° 0 mm 3 m/S 705 mmHg 42%
    01:00 -1°C° 0 mm 3 m/S 706 mmHg 41%
    02:00 -1°C° 0 mm 3 m/S 706 mmHg 40%
    03:00 -1°C° 0 mm 3 m/S 706 mmHg 39%
    04:00 -1°C° 0 mm 3 m/S 706 mmHg 38%
    05:00 -1°C° 0 mm 2 m/S 706 mmHg 38%
    06:00 -1°C° 0 mm 2 m/S 706 mmHg 37%
    07:00 -1°C° 0 mm 2 m/S 706 mmHg 37%
    08:00 -1°C° 0 mm 2 m/S 706 mmHg 36%
    09:00 +1°C° 0 mm 2 m/S 705 mmHg 35%
    10:00 +3°C° 0 mm 2 m/S 705 mmHg 33%
    11:00 +5°C° 0 mm 1 m/S 705 mmHg 31%
    12:00 +5°C° 0 mm 2 m/S 704 mmHg 32%
    13:00 +5°C° 0 mm 2 m/S 704 mmHg 33%
    14:00 +6°C° 0 mm 2 m/S 703 mmHg 33%
    15:00 +4°C° 0 mm 2 m/S 703 mmHg 37%
    16:00 +3°C° 0 mm 2 m/S 703 mmHg 41%
    17:00 +2°C° 0 mm 2 m/S 703 mmHg 45%
    18:00 +1°C° 0 mm 2 m/S 703 mmHg 44%
    19:00 +1°C° 0 mm 2 m/S 703 mmHg 43%
    20:00 +1°C° 0 mm 2 m/S 703 mmHg 41%
    21:00 +1°C° 0 mm 2 m/S 703 mmHg 39%
    22:00 +1°C° 0 mm 2 m/S 702 mmHg 37%
    23:00 -1°C° 0 mm 2 m/S 702 mmHg 36%

    26 Januar, Samstag

    Zeit Temperatur Niederschläge Wind Luftdruck Luftfeuchtigkeit
    00:00 -1°C° 0 mm 2 m/S 702 mmHg 34%
    01:00 -1°C° 0 mm 2 m/S 702 mmHg 32%
    02:00 -1°C° 0 mm 2 m/S 702 mmHg 30%
    03:00 -1°C° 0 mm 3 m/S 702 mmHg 29%
    04:00 -1°C° 0 mm 3 m/S 702 mmHg 28%
    05:00 -1°C° 0 mm 3 m/S 701 mmHg 27%
    06:00 -1°C° 0 mm 3 m/S 702 mmHg 26%
    07:00 -1°C° 0 mm 3 m/S 702 mmHg 26%
    08:00 -1°C° 0 mm 3 m/S 702 mmHg 25%
    09:00 +2°C° 0 mm 2 m/S 702 mmHg 24%
    10:00 +4°C° 0 mm 2 m/S 702 mmHg 24%
    11:00 +7°C° 0 mm 1 m/S 701 mmHg 23%
    12:00 +7°C° 0 mm 1 m/S 701 mmHg 24%
    13:00 +7°C° 0 mm 1 m/S 701 mmHg 25%
    14:00 +8°C° 0 mm 1 m/S 700 mmHg 26%
    15:00 +6°C° 0 mm 2 m/S 700 mmHg 29%
    16:00 +4°C° 0 mm 2 m/S 700 mmHg 33%
    17:00 +3°C° 0 mm 2 m/S 700 mmHg 36%
    18:00 +1°C° 0 mm 3 m/S 701 mmHg 35%
    19:00 +1°C° 0 mm 3 m/S 701 mmHg 35%
    20:00 0°C° 0 mm 3 m/S 701 mmHg 34%
    21:00 0°C° 0 mm 3 m/S 701 mmHg 32%
    22:00 0°C° 0 mm 3 m/S 701 mmHg 30%
    23:00 0°C° 0 mm 3 m/S 701 mmHg 29%
    Mehr zeigen